Location: Del Amo
(33.8464°N, 118.2104°W)
Time: 20:09:56
(UTC+00:00)

S-56A Canister/Altair - Pass Details

Date: 21 September 2024
Orbit: 636 x 2487 km, 38.9° (Epoch: 14 October)

Event Time Altitude Azimuth Distance (km) Brightness Sun altitude
Rises 02:31:44 0° 278° (W) 3,071 13.1 -9.2°
Reaches altitude 10° 02:33:53 10° 284° (WNW) 2,262 11.6 -9.6°
Maximum altitude 02:38:58 54° 2° (N) 1,103 8.4 -10.7°
Enters shadow 02:45:34 12° 77° (ENE) 2,963 9.9 -12.0°
Drops below altitude 10° 02:46:14 10° 79° (ENE) 3,202 - -12.2°
Sets 02:49:49 0° 83° (E) 4,484 - -12.9°
